Regional Weather Roundup
Issued by NWS

Home | Current Version | Previous Version | Graphics & Text | Print | Product List | Glossary On
Versions: 1 2 3 4 5 6 7 8 9 10 11 12 13 14 15 16 17 18 19 20 21 22 23 24 25 26 27 28 29 30 31 32 33 34 35 36 37 38 39 40 41 42 43 44 45 46 47 48 49 50
000
ASUS45 KABQ 210301
RWRNM
NEW MEXICO REGIONAL WEATHER ROUNDUP
NATIONAL WEATHER SERVICE ALBUQUERQUE NM
900 PM MDT WED SEP 20 2017

NOTE: "FAIR" MEANS FEW OR NO CLOUDS BELOW 12,000 FEET AGL WITH NO
       SIGNIFICANT WEATHER OR OBSTRUCTIONS TO VISION.

      THIS PRODUCT IS RELEASED AS TWO VERSIONS.  ONE VERSION NEAR
      THE TOP OF THE HOUR CONTAINING PRELIMINARY DATA FROM ALBUQUERQUE
      AND OTHER STATIONS.  A FINAL VERSION WITH ADDITIONAL DATA IS
      ISSUED ABOUT 10 MINUTES AFTER THE HOUR.

NMZ501-503-504-510>518-210400-
NORTHWEST PLATEAU/NORTHCENTRAL MOUNTAINS

CITY           SKY/WX    TMP DP  RH WIND       PRES   REMARKS
FARMINGTON     FAIR      69  24  18 SW5       29.93R
LOS ALAMOS     FAIR      67  20  17 SW8       30.12R
SANTA FE       FAIR      64  24  21 NE5       30.05R
TAOS           FAIR      60  21  22 S9        30.11R

$$
NMZ402-403-502-505>509-210400-
WESTCENTRAL MOUNTAINS/SOUTHWEST MOUNTAINS

CITY           SKY/WX    TMP DP  RH WIND       PRES   REMARKS
GALLUP         FAIR      68  30  24 SW12      30.06R
GRANTS         FAIR      64  25  22 N5        30.08R
SILVER CITY    FAIR      64  40  41 NW6       30.06R

$$
NMZ407-409-411-412-210400-
SOUTHERN DESERTS

CITY           SKY/WX    TMP DP  RH WIND       PRES   REMARKS
DEMING         FAIR      75  45  34 SW3       29.97R
LAS CRUCES     FAIR      74  39  28 W6        29.99R
HOLLOMAN AFB   CLEAR     76  40  27 SE8       29.98R
ALAMOGORDO     FAIR      72  37  28 SE9       29.97R
T OR C         FAIR      80  39  23 SW9       29.97R

$$
NMZ519>523-210400-
CENTRAL VALLEYS/CENTRAL HIGHLANDS

CITY           SKY/WX    TMP DP  RH WIND       PRES   REMARKS
ALBUQUERQUE    FAIR      70  21  15 SE7       29.97R
DOUBLE EAGLE   CLEAR     63  25  23 S8        30.01R
CLINES CORNERS FAIR      60  20  21 SW13      30.12R
BELEN          FAIR      74  24  16 S9        29.97R
SOCORRO        FAIR      73  29  20 SW7       29.96R

$$
NMZ524>526-539-540-210400-
SOUTHCENTRAL MOUNTAINS

CITY           SKY/WX    TMP DP  RH WIND       PRES   REMARKS
RUIDOSO        FAIR      66  34  30 SW12      30.16R

$$
NMZ527>531-210400-
NORTHEAST HIGHLANDS/NORTHEAST PLAINS

CITY           SKY/WX    TMP DP  RH WIND       PRES   REMARKS
LAS VEGAS      FAIR      59  23  25 SW9       30.09R
RATON          FAIR      57  35  43 W12       30.04R
CLAYTON        FAIR      60  41  49 S6        29.97R

$$
NMZ532>537-210400-
EASTCENTRAL PLAINS

CITY           SKY/WX    TMP DP  RH WIND       PRES   REMARKS
SANTA ROSA     FAIR      67  28  23 S8        29.95R
TUCUMCARI      FAIR      65  42  43 E6        29.89R
CANNON AFB     CLEAR     67  47  49 SE14      29.96R
CLOVIS AIRPORT FAIR      64  48  56 SE6       29.96R

$$
NMZ028-029-538-210400-
SOUTHEAST PLAINS

CITY           SKY/WX    TMP DP  RH WIND       PRES   REMARKS
ROSWELL        FAIR      85  37  18 S18G31    29.88R
ARTESIA        FAIR      81  39  22 S12       29.91R
CARLSBAD       FAIR      77  40  26 SW12      29.89R
HOBBS          FAIR      72  45  37 SW7       29.93R


$$



USA.gov is the U.S. government's official web portal to all federal, state and local government web resources and services.